TimeCST,TemperatureF,Dew PointF,Humidity,Sea Level PressureIn,VisibilityMPH,Wind Direction,Wind SpeedMPH,Gust SpeedMPH,PrecipitationIn,Events,Conditions,WindDirDegrees,DateUTC
12:14 AM,50.0,24.8,37,29.67,10.0,South,16.1,27.6,N/A,,Clear,170,2013-11-20 06:14:00
12:33 AM,48.2,24.8,40,29.67,10.0,South,13.8,21.9,N/A,,Clear,170,2013-11-20 06:33:00
12:54 AM,48.2,26.6,43,29.67,10.0,South,16.1,21.9,N/A,,Clear,170,2013-11-20 06:54:00
1:14 AM,48.2,26.6,43,29.67,10.0,South,17.3,24.2,N/A,,Clear,170,2013-11-20 07:14:00
1:33 AM,48.2,26.6,43,29.68,10.0,South,15.0,20.7,N/A,,Clear,180,2013-11-20 07:33:00
1:54 AM,48.2,26.6,43,29.69,10.0,South,12.7,20.7,N/A,,Clear,180,2013-11-20 07:54:00
2:14 AM,48.2,26.6,43,29.69,10.0,South,16.1,20.7,N/A,,Clear,170,2013-11-20 08:14:00
2:33 AM,48.2,26.6,43,29.70,10.0,South,15.0,20.7,N/A,,Clear,180,2013-11-20 08:33:00
2:54 AM,48.2,26.6,43,29.70,10.0,South,9.2,20.7,N/A,,Clear,180,2013-11-20 08:54:00
3:14 AM,46.4,26.6,46,29.70,10.0,South,11.5,18.4,N/A,,Clear,170,2013-11-20 09:14:00
3:33 AM,46.4,26.6,46,29.70,10.0,South,13.8,-,N/A,,Clear,180,2013-11-20 09:33:00
3:54 AM,46.4,26.6,46,29.70,10.0,South,10.4,-,N/A,,Clear,170,2013-11-20 09:54:00
4:13 AM,46.4,26.6,46,29.70,10.0,SSE,8.1,-,N/A,,Clear,160,2013-11-20 10:13:00
4:34 AM,46.4,26.6,46,29.70,10.0,SSE,8.1,-,N/A,,Clear,160,2013-11-20 10:34:00
4:54 AM,44.6,28.4,53,29.71,10.0,SE,9.2,-,N/A,,Clear,140,2013-11-20 10:54:00
5:13 AM,42.8,28.4,57,29.71,10.0,SSE,5.8,-,N/A,,Clear,150,2013-11-20 11:13:00
5:34 AM,42.8,28.4,57,29.72,10.0,SSE,4.6,-,N/A,,Clear,160,2013-11-20 11:34:00
5:54 AM,42.8,28.4,57,29.72,10.0,SE,6.9,-,N/A,,Clear,140,2013-11-20 11:54:00
6:13 AM,42.8,28.4,57,29.73,10.0,SE,5.8,-,N/A,,Clear,140,2013-11-20 12:13:00
6:34 AM,42.8,28.4,57,29.74,10.0,SE,5.8,-,N/A,,Clear,130,2013-11-20 12:34:00
6:54 AM,41.0,28.4,61,29.75,10.0,SE,6.9,-,N/A,,Clear,130,2013-11-20 12:54:00
7:13 AM,41.0,28.4,61,29.75,10.0,SE,6.9,-,N/A,,Clear,140,2013-11-20 13:13:00
7:34 AM,39.2,28.4,65,29.76,10.0,SSE,5.8,-,N/A,,Clear,150,2013-11-20 13:34:00
7:54 AM,39.2,28.4,65,29.76,10.0,SE,6.9,-,N/A,,Clear,140,2013-11-20 13:54:00
8:13 AM,37.4,28.4,70,29.77,10.0,SE,5.8,-,N/A,,Clear,140,2013-11-20 14:13:00
8:34 AM,37.4,28.4,70,29.77,10.0,SE,6.9,-,N/A,,Clear,130,2013-11-20 14:34:00
8:53 AM,39.2,28.4,65,29.78,10.0,SE,5.8,-,N/A,,Clear,140,2013-11-20 14:53:00
9:14 AM,39.2,28.4,65,29.79,10.0,NW,9.2,-,N/A,,Clear,310,2013-11-20 15:14:00
9:34 AM,41.0,30.2,65,29.80,10.0,NW,8.1,-,N/A,,Clear,320,2013-11-20 15:34:00
9:53 AM,39.2,30.2,70,29.80,10.0,NW,6.9,-,N/A,,Clear,320,2013-11-20 15:53:00
10:13 AM,41.0,30.2,65,29.81,10.0,NNW,10.4,-,N/A,,Clear,340,2013-11-20 16:13:00
10:34 AM,39.2,30.2,70,29.82,10.0,NW,10.4,-,N/A,,Clear,320,2013-11-20 16:34:00
10:54 AM,39.2,30.2,70,29.83,10.0,NNW,10.4,-,N/A,,Clear,340,2013-11-20 16:54:00
11:13 AM,39.2,30.2,70,29.82,10.0,NNW,10.4,-,N/A,,Clear,340,2013-11-20 17:13:00
11:34 AM,39.2,30.2,70,29.82,10.0,NNW,10.4,-,N/A,,Clear,340,2013-11-20 17:34:00
11:54 AM,41.0,30.2,65,29.82,10.0,North,10.4,-,N/A,,Clear,350,2013-11-20 17:54:00
12:13 PM,41.0,30.2,65,29.82,10.0,NNW,10.4,-,N/A,,Clear,330,2013-11-20 18:13:00
12:34 PM,41.0,30.2,65,29.82,10.0,North,10.4,-,N/A,,Clear,350,2013-11-20 18:34:00
12:54 PM,41.0,30.2,65,29.82,10.0,NNW,11.5,-,N/A,,Clear,340,2013-11-20 18:54:00
1:13 PM,41.0,30.2,65,29.82,10.0,North,10.4,-,N/A,,Clear,350,2013-11-20 19:13:00
1:34 PM,41.0,28.4,61,29.82,10.0,North,11.5,-,N/A,,Clear,360,2013-11-20 19:34:00
1:54 PM,41.0,30.2,65,29.82,10.0,NNW,12.7,-,N/A,,Clear,340,2013-11-20 19:54:00
2:14 PM,42.8,30.2,61,29.82,10.0,North,12.7,-,N/A,,Clear,350,2013-11-20 20:14:00
2:34 PM,42.8,30.2,61,29.82,10.0,NNW,13.8,-,N/A,,Clear,340,2013-11-20 20:34:00
2:54 PM,41.0,28.4,61,29.82,10.0,North,12.7,-,N/A,,Clear,350,2013-11-20 20:54:00
3:14 PM,39.2,28.4,65,29.83,10.0,North,16.1,-,N/A,,Clear,350,2013-11-20 21:14:00
3:34 PM,39.2,28.4,65,29.83,10.0,NNW,13.8,-,N/A,,Clear,340,2013-11-20 21:34:00
3:54 PM,39.2,28.4,65,29.83,10.0,NNW,12.7,-,N/A,,Clear,340,2013-11-20 21:54:00
4:14 PM,37.4,28.4,70,29.85,10.0,NNW,13.8,-,N/A,,Clear,340,2013-11-20 22:14:00
4:34 PM,35.6,26.6,70,29.86,10.0,NNW,12.7,-,N/A,,Clear,340,2013-11-20 22:34:00
4:54 PM,33.8,26.6,75,29.86,10.0,NNW,11.5,16.1,N/A,,Clear,340,2013-11-20 22:54:00
5:14 PM,32.0,26.6,80,29.87,10.0,NNW,12.7,-,N/A,,Clear,340,2013-11-20 23:14:00
5:34 PM,30.2,26.6,86,29.89,10.0,NNW,12.7,-,N/A,,Clear,330,2013-11-20 23:34:00
5:54 PM,30.2,26.6,86,29.91,10.0,NNW,12.7,-,N/A,,Clear,330,2013-11-20 23:54:00
6:13 PM,30.2,26.6,86,29.91,10.0,NNW,11.5,16.1,N/A,,Clear,340,2013-11-21 00:13:00
6:34 PM,30.2,24.8,80,29.93,10.0,NNW,12.7,-,N/A,,Clear,330,2013-11-21 00:34:00
6:54 PM,28.4,24.8,86,29.94,10.0,NNW,15.0,-,N/A,,Clear,340,2013-11-21 00:54:00
7:13 PM,28.4,24.8,86,29.95,10.0,NNW,12.7,-,N/A,,Clear,340,2013-11-21 01:13:00
7:34 PM,28.4,24.8,86,29.95,7.0,NNW,13.8,-,N/A,,Clear,340,2013-11-21 01:34:00
7:54 PM,28.4,24.8,86,29.96,7.0,NNW,18.4,24.2,N/A,,Scattered Clouds,340,2013-11-21 01:54:00
8:13 PM,30.2,24.8,80,29.97,7.0,NNW,16.1,25.3,N/A,,Overcast,330,2013-11-21 02:13:00
8:34 PM,30.2,24.8,80,29.98,7.0,NNW,21.9,26.5,N/A,,Overcast,340,2013-11-21 02:34:00
8:54 PM,28.4,24.8,86,29.99,7.0,North,19.6,24.2,N/A,,Overcast,350,2013-11-21 02:54:00
9:14 PM,28.4,24.8,86,30.01,10.0,North,17.3,-,N/A,,Overcast,350,2013-11-21 03:14:00
9:33 PM,28.4,24.8,86,30.02,10.0,NNW,16.1,26.5,N/A,,Overcast,340,2013-11-21 03:33:00
9:54 PM,26.6,21.2,80,30.03,10.0,North,18.4,26.5,N/A,,Overcast,350,2013-11-21 03:54:00
10:13 PM,26.6,21.2,80,30.05,10.0,NNW,19.6,23.0,N/A,,Overcast,340,2013-11-21 04:13:00
10:34 PM,26.6,21.2,80,30.06,10.0,NNW,20.7,26.5,N/A,,Overcast,340,2013-11-21 04:34:00
10:54 PM,26.6,21.2,80,30.07,10.0,NNW,17.3,25.3,N/A,,Overcast,330,2013-11-21 04:54:00
11:14 PM,24.8,19.4,80,30.09,10.0,NW,20.7,24.2,N/A,,Overcast,320,2013-11-21 05:14:00
11:34 PM,24.8,19.4,80,30.10,10.0,NNW,20.7,28.8,N/A,,Overcast,330,2013-11-21 05:34:00
11:54 PM,24.8,19.4,80,30.11,10.0,NNW,16.1,26.5,N/A,,Overcast,340,2013-11-21 05:54:00